User: anonymous   Login
Location: Bethera
(33.2010°N, 79.7880°W)
Time: 03:24:02
(UTC-04:00)
Language:

Cosmos 1833 Rocket - Orbit

View from above orbital plane
View from above orbital plane
View from above satellite
View from above satellite

Ground track
Ground track

The orbit data is extracted from the following two-line orbital elements,

1 17590U 87027B   15144.84147921 -.00000126  00000-0 -39320-4 0  9999
2 17590 071.0030 298.3767 0004971 348.5143 011.5866 14.16693905457283
Epoch (UTC): 24 May 2015 20:11:43
Eccentricity: 0.0004971
inclination: 71.0030°
perigee height: 833 km
apogee height: 840 km
right ascension of ascending node: 298.3767°
argument of perigee: 348.5143°
revolutions per day: 14.16693905
mean anomaly at epoch: 11.5866°
orbit number at epoch: 45728

The dashed part of the orbit path shows where the satellite is in the earth's shadow,  

DLR